{"data":{"norad_id":62018,"intl_designator":"2024-213L","name":"STARLINK-11411 [DTC]","alt_names":[],"object_type":"PAYLOAD","status":"ACTIVE","operator":null,"country":"US","launch_date":"2024-11-18","launch_site_code":"AFWTR","launch_vehicle":null,"mission":null,"orbit_class":"UNKNOWN","rcs_meters":null,"size_class":null,"mass_kg":null,"dimensions":null,"purposes":["comms"],"wikipedia_slug":null,"has_3d_model":false,"image_url":null,"decayed_at":null,"tle_current":{"epoch":"2026-09-21T05:00:02.138976Z","epoch_age_seconds":124339,"freshness":"FRESH","line1":"1 62018U 24213L   26264.20835809  .00141550  00000+0  11515-2 0  9994","line2":"2 62018  53.1566 157.4250 0000893 107.6355 252.4761 15.69749984105629","mean_motion":15.69749984,"eccentricity":8.93e-5,"inclination_deg":53.1566,"raan_deg":157.425,"arg_perigee_deg":107.6355,"mean_anomaly_deg":252.4761,"bstar":0.0011515,"rev_number":10562,"period_min":91.734353538939,"perigee_km":359.01065293002,"apogee_km":360.21401496106,"semimajor_km":6737.7493339455,"source":"CELESTRAK","updated_at":"2026-09-22T09:00:49.484177Z"}}}